QPF
0.00 0.00 0.00 0.00 0.00 0.00 0.01 0.01 0.02 0.02 0.02 0.01 0.01 0.01 0.01 0.02 0.01 0.02 0.02 0.01 0.03 0.06 0.10 0.14 0.14 0.14 0.14 0.09 0.07 0.06 0.06 0.06 0.06 0.05 0.04 0.04 0.06 0.08 0.08 0.07 0.08 0.09 0.08
0.01 0.01 0.02 0.02 0.02 0.02 0.03 0.04 0.05 0.05 0.04 0.04 0.03 0.04 0.03 0.02 0.03 0.03 0.03 0.03 0.04 0.04 0.07 0.12 0.14 0.16 0.16 0.13 0.10 0.09 0.08 0.07 0.07 0.06 0.05 0.05 0.06 0.07 0.08 0.07 0.07 0.07 0.06
0.04 0.04 0.04 0.05 0.05 0.06 0.07 0.08 0.08 0.08 0.08 0.07 0.07 0.08 0.07 0.05 0.05 0.04 0.05 0.05 0.06 0.05 0.06 0.10 0.14 0.16 0.17 0.16 0.15 0.12 0.09 0.08 0.07 0.05 0.04 0.05 0.05 0.05 0.06 0.07 0.07 0.06 0.04
0.10 0.10 0.09 0.09 0.14 0.16 0.14 0.14 0.13 0.12 0.11 0.11 0.10 0.09 0.07 0.06 0.05 0.05 0.06 0.08 0.09 0.08 0.07 0.09 0.12 0.14 0.17 0.18 0.17 0.15 0.12 0.09 0.07 0.06 0.05 0.04 0.04 0.03 0.03 0.05 0.06 0.05 0.03
0.18 0.20 0.17 0.17 0.24 0.24 0.20 0.22 0.19 0.18 0.15 0.14 0.13 0.09 0.07 0.05 0.05 0.05 0.04 0.06 0.07 0.07 0.06 0.05 0.06 0.09 0.12 0.16 0.15 0.17 0.14 0.09 0.08 0.08 0.08 0.06 0.05 0.03 0.02 0.02 0.03 0.03 0.02
0.22 0.25 0.21 0.21 0.30 0.29 0.25 0.30 0.31 0.26 0.19 0.18 0.17 0.09 0.07 0.06 0.05 0.04 0.04 0.05 0.05 0.04 0.04 0.04 0.05 0.05 0.07 0.10 0.10 0.14 0.14 0.11 0.10 0.09 0.08 0.08 0.07 0.04 0.02 0.01 0.01 0.02 0.02
0.23 0.27 0.23 0.22 0.27 0.27 0.25 0.32 0.35 0.29 0.22 0.28 0.25 0.12 0.07 0.07 0.05 0.04 0.04 0.04 0.04 0.04 0.04 0.04 0.05 0.05 0.04 0.05 0.08 0.10 0.13 0.13 0.10 0.09 0.08 0.08 0.08 0.07 0.05 0.03 0.02 0.02 0.02
0.21 0.24 0.22 0.21 0.25 0.26 0.23 0.26 0.32 0.28 0.22 0.30 0.31 0.23 0.11 0.06 0.05 0.04 0.03 0.03 0.03 0.05 0.05 0.05 0.06 0.07 0.08 0.07 0.07 0.06 0.08 0.10 0.09 0.07 0.06 0.06 0.06 0.06 0.06 0.04 0.03 0.02 0.02
0.15 0.17 0.15 0.17 0.19 0.23 0.19 0.22 0.29 0.28 0.23 0.24 0.27 0.28 0.17 0.08 0.06 0.04 0.03 0.02 0.03 0.04 0.06 0.07 0.07 0.09 0.10 0.08 0.06 0.05 0.05 0.07 0.07 0.07 0.06 0.05 0.04 0.04 0.05 0.06 0.05 0.03 0.02
0.07 0.09 0.11 0.13 0.14 0.16 0.16 0.19 0.28 0.29 0.27 0.21 0.21 0.22 0.20 0.14 0.10 0.06 0.04 0.04 0.04 0.04 0.05 0.06 0.06 0.08 0.09 0.09 0.08 0.06 0.05 0.06 0.03 0.04 0.04 0.04 0.03 0.02 0.03 0.06 0.11 0.11 0.06
0.03 0.05 0.08 0.10 0.11 0.13 0.13 0.14 0.16 0.18 0.18 0.17 0.15 0.15 0.15 0.13 0.10 0.07 0.04 0.03 0.04 0.03 0.04 0.05 0.06 0.08 0.08 0.08 0.07 0.06 0.05 0.04 0.03 0.02 0.02 0.02 0.02 0.02 0.03 0.05 0.10 0.13 0.13
0.01 0.02 0.03 0.04 0.05 0.06 0.06 0.06 0.09 0.10 0.11 0.11 0.12 0.12 0.11 0.10 0.09 0.10 0.08 0.06 0.05 0.05 0.05 0.06 0.08 0.09 0.08 0.07 0.07 0.05 0.03 0.03 0.02 0.02 0.01 0.01 0.01 0.02 0.02 0.03 0.05 0.08 0.10
0.00 0.00 0.00 0.01 0.01 0.03 0.03 0.04 0.05 0.05 0.08 0.09 0.10 0.10 0.11 0.10 0.10 0.10 0.10 0.09 0.09 0.08 0.07 0.07 0.09 0.10 0.09 0.08 0.07 0.04 0.02 0.02 0.01 0.01 0.00 0.00 0.00 0.00 0.01 0.01 0.02 0.04 0.05
0.00 0.00 0.00 0.00 0.00 0.01 0.02 0.03 0.04 0.05 0.07 0.09 0.11 0.11 0.11 0.11 0.11 0.10 0.11 0.15 0.14 0.13 0.10 0.09 0.09 0.09 0.10 0.08 0.07 0.04 0.02 0.02 0.01 0.01 0.01 0.00 0.00 0.00 0.00 0.01 0.01 0.01 0.02
0.00 0.00 0.00 0.00 0.00 0.01 0.01 0.02 0.04 0.06 0.07 0.09 0.11 0.12 0.12 0.12 0.12 0.12 0.14 0.16 0.17 0.16 0.14 0.10 0.08 0.08 0.08 0.06 0.05 0.02 0.01 0.01 0.01 0.01 0.00 0.00 0.00 0.00 0.00 0.00 0.00 0.01 0.01
0.00 0.00 0.00 0.00 0.00 0.01 0.02 0.03 0.04 0.05 0.08 0.09 0.12 0.14 0.14 0.14 0.14 0.14 0.16 0.18 0.15 0.14 0.13 0.11 0.09 0.08 0.07 0.06 0.05 0.02 0.01 0.01 0.00 0.00 0.00 0.00 0.00 0.00 0.00 0.00 0.00 0.00 0.00
0.00 0.00 0.00 0.00 0.00 0.01 0.02 0.03 0.04 0.06 0.09 0.13 0.16 0.18 0.20 0.21 0.19 0.17 0.17 0.17 0.17 0.14 0.13 0.10 0.08 0.08 0.07 0.04 0.03 0.02 0.01 0.00 0.00 0.00 0.00 0.00 0.00 0.00 0.00 0.00 0.00 0.00 0.00
0.00 0.00 0.00 0.00 0.01 0.02 0.02 0.04 0.05 0.08 0.13 0.17 0.22 0.27 0.27 0.26 0.24 0.23 0.21 0.18 0.17 0.15 0.13 0.12 0.08 0.05 0.04 0.02 0.01 0.00 0.00 0.00 0.00 0.00 0.00 0.00 0.00 0.00 0.00 0.00 0.00 0.00 0.00
0.00 0.00 0.00 0.01 0.01 0.03 0.06 0.07 0.09 0.13 0.19 0.24 0.25 0.29 0.31 0.29 0.28 0.29 0.27 0.24 0.20 0.17 0.14 0.12 0.08 0.04 0.02 0.01 0.00 0.00 0.00 0.00 0.00 0.00 0.00 0.00 0.00 0.00 0.00 0.00 0.00 0.00 0.00
0.00 0.00 0.00 0.00 0.01 0.03 0.06 0.09 0.10 0.12 0.15 0.20 0.22 0.22 0.22 0.20 0.22 0.23 0.22 0.21 0.17 0.13 0.10 0.08 0.05 0.03 0.01 0.01 0.00 0.00 0.00 0.00 0.00 0.00 0.00 0.00 0.00 0.00 0.00 0.00 0.00 0.00 0.00
0.00 0.00 0.00 0.01 0.03 0.04 0.05 0.06 0.09 0.09 0.10 0.10 0.11 0.13 0.15 0.15 0.14 0.14 0.16 0.15 0.11 0.08 0.06 0.04 0.02 0.01 0.01 0.00 0.00 0.00 0.00 0.00 0.00 0.00 0.00 0.00 0.00 0.00 0.00 0.00 0.00 0.00 0.00
0.00 0.00 0.00 0.00 0.01 0.04 0.05 0.05 0.06 0.07 0.07 0.07 0.07 0.07 0.09 0.10 0.10 0.11 0.11 0.10 0.08 0.05 0.03 0.02 0.01 0.00 0.00 0.00 0.00 0.00 0.00 0.00 0.00 0.00 0.00 0.00 0.00 0.00 0.00 0.00 0.00 0.00 0.00
0.00 0.00 0.01 0.01 0.02 0.02 0.03 0.04 0.05 0.06 0.06 0.07 0.07 0.06 0.04 0.03 0.04 0.05 0.06 0.06 0.06 0.06 0.03 0.01 0.00 0.00 0.00 0.00 0.00 0.00 0.00 0.00 0.00 0.00 0.00 0.00 0.00 0.00 0.00 0.00 0.00 0.00 0.00
0.00 0.00 0.01 0.02 0.02 0.02 0.03 0.05 0.06 0.06 0.08 0.08 0.06 0.05 0.03 0.02 0.01 0.01 0.01 0.02 0.02 0.02 0.01 0.01 0.00 0.00 0.00 0.00 0.00 0.00 0.00 0.00 0.00 0.00 0.00 0.00 0.00 0.00 0.00 0.00 0.00 0.00 0.00
0.01 0.00 0.00 0.02 0.03 0.02 0.03 0.04 0.04 0.04 0.06 0.08 0.04 0.03 0.02 0.01 0.01 0.00 0.01 0.01 0.01 0.00 0.00 0.00 0.00 0.00 0.00 0.00 0.00 0.00 0.00 0.00 0.00 0.00 0.00 0.00 0.00 0.00 0.00 0.00 0.00 0.00 0.00
0.01 0.00 0.00 0.01 0.02 0.02 0.02 0.02 0.02 0.03 0.04 0.05 0.03 0.02 0.01 0.01 0.00 0.00 0.00 0.01 0.00 0.00 0.00 0.00 0.00 0.00 0.00 0.00 0.00 0.00 0.00 0.00 0.00 0.00 0.00 0.00 0.00 0.00 0.00 0.00 0.00 0.00 0.00
MSLP
1012.97 1013.01 1013.03 1013.05 1013.10 1013.17 1013.27 1013.40 1013.53 1013.66 1013.75 1013.79 1013.79 1013.74 1013.67 1013.58 1013.48 1013.40 1013.32 1013.24 1013.16 1013.07 1012.98 1012.90 1012.84 1012.82 1012.86 1012.98 1013.17 1013.41 1013.70 1014.01 1014.33 1014.63 1014.92 1015.20 1015.46 1015.74 1016.02 1016.32 1016.63 1016.95 1017.28
1012.41 1012.40 1012.40 1012.43 1012.48 1012.57 1012.70 1012.85 1013.02 1013.18 1013.30 1013.38 1013.40 1013.38 1013.31 1013.22 1013.11 1012.99 1012.88 1012.78 1012.68 1012.58 1012.50 1012.43 1012.39 1012.39 1012.44 1012.56 1012.73 1012.95 1013.21 1013.49 1013.78 1014.07 1014.36 1014.63 1014.90 1015.18 1015.46 1015.76 1016.07 1016.39 1016.72
1011.81 1011.76 1011.75 1011.78 1011.84 1011.96 1012.11 1012.30 1012.49 1012.68 1012.85 1012.96 1013.02 1013.02 1012.97 1012.87 1012.75 1012.61 1012.46 1012.32 1012.19 1012.07 1011.97 1011.90 1011.86 1011.87 1011.92 1012.03 1012.19 1012.39 1012.63 1012.90 1013.17 1013.45 1013.73 1014.01 1014.28 1014.56 1014.85 1015.15 1015.46 1015.79 1016.14
1011.21 1011.13 1011.10 1011.13 1011.21 1011.34 1011.52 1011.73 1011.95 1012.17 1012.37 1012.52 1012.62 1012.65 1012.62 1012.54 1012.41 1012.24 1012.06 1011.87 1011.69 1011.52 1011.39 1011.29 1011.24 1011.23 1011.28 1011.38 1011.53 1011.72 1011.95 1012.21 1012.49 1012.77 1013.06 1013.34 1013.63 1013.92 1014.21 1014.52 1014.84 1015.18 1015.54
1010.64 1010.53 1010.49 1010.51 1010.60 1010.74 1010.93 1011.15 1011.39 1011.63 1011.85 1012.04 1012.18 1012.25 1012.26 1012.19 1012.07 1011.89 1011.67 1011.43 1011.19 1010.97 1010.78 1010.63 1010.53 1010.50 1010.52 1010.61 1010.75 1010.94 1011.18 1011.45 1011.74 1012.05 1012.36 1012.67 1012.97 1013.28 1013.58 1013.89 1014.21 1014.56 1014.93
1010.14 1010.00 1009.94 1009.94 1010.02 1010.15 1010.33 1010.55 1010.79 1011.04 1011.28 1011.50 1011.69 1011.81 1011.86 1011.83 1011.73 1011.55 1011.31 1011.03 1010.74 1010.45 1010.19 1009.97 1009.82 1009.73 1009.72 1009.78 1009.92 1010.12 1010.38 1010.68 1011.00 1011.35 1011.69 1012.03 1012.36 1012.68 1012.99 1013.30 1013.62 1013.95 1014.32
1009.75 1009.57 1009.47 1009.44 1009.49 1009.59 1009.73 1009.92 1010.14 1010.38 1010.64 1010.89 1011.11 1011.29 1011.40 1011.43 1011.37 1011.22 1010.98 1010.68 1010.35 1010.00 1009.67 1009.39 1009.16 1009.02 1008.97 1009.01 1009.14 1009.35 1009.63 1009.96 1010.33 1010.72 1011.11 1011.49 1011.84 1012.17 1012.48 1012.78 1013.08 1013.39 1013.73
1009.49 1009.25 1009.10 1009.03 1009.01 1009.05 1009.14 1009.28 1009.45 1009.67 1009.92 1010.19 1010.45 1010.69 1010.87 1010.97 1010.98 1010.88 1010.68 1010.39 1010.04 1009.66 1009.28 1008.94 1008.66 1008.47 1008.37 1008.38 1008.50 1008.71 1009.02 1009.39 1009.80 1010.23 1010.67 1011.08 1011.45 1011.79 1012.09 1012.36 1012.62 1012.89 1013.18
1009.37 1009.08 1008.86 1008.71 1008.62 1008.57 1008.58 1008.63 1008.74 1008.90 1009.12 1009.39 1009.68 1009.97 1010.23 1010.42 1010.51 1010.49 1010.36 1010.13 1009.81 1009.44 1009.05 1008.68 1008.36 1008.13 1008.00 1007.99 1008.09 1008.30 1008.61 1009.00 1009.45 1009.92 1010.38 1010.81 1011.20 1011.54 1011.82 1012.06 1012.27 1012.48 1012.71
1009.38 1009.02 1008.73 1008.49 1008.30 1008.15 1008.05 1008.00 1008.01 1008.10 1008.26 1008.50 1008.80 1009.13 1009.45 1009.73 1009.93 1010.02 1010.00 1009.85 1009.61 1009.30 1008.95 1008.59 1008.28 1008.04 1007.89 1007.85 1007.94 1008.14 1008.44 1008.83 1009.28 1009.76 1010.24 1010.68 1011.07 1011.40 1011.66 1011.87 1012.04 1012.19 1012.34
1009.48 1009.07 1008.70 1008.36 1008.06 1007.80 1007.57 1007.39 1007.29 1007.27 1007.36 1007.55 1007.82 1008.17 1008.54 1008.90 1009.20 1009.41 1009.52 1009.51 1009.39 1009.18 1008.92 1008.64 1008.37 1008.15 1008.01 1007.96 1008.03 1008.20 1008.48 1008.84 1009.27 1009.74 1010.20 1010.64 1011.03 1011.35 1011.59 1011.78 1011.91 1012.01 1012.10
1009.63 1009.16 1008.72 1008.30 1007.89 1007.50 1007.14 1006.83 1006.59 1006.45 1006.43 1006.54 1006.77 1007.10 1007.49 1007.91 1008.31 1008.65 1008.90 1009.04 1009.09 1009.04 1008.91 1008.75 1008.57 1008.41 1008.30 1008.26 1008.30 1008.44 1008.68 1008.99 1009.38 1009.80 1010.23 1010.65 1011.02 1011.33 1011.58 1011.75 1011.87 1011.95 1012.01
1009.75 1009.25 1008.75 1008.26 1007.75 1007.25 1006.77 1006.32 1005.95 1005.67 1005.53 1005.53 1005.68 1005.96 1006.35 1006.80 1007.27 1007.72 1008.12 1008.44 1008.66 1008.80 1008.86 1008.85 1008.80 1008.74 1008.68 1008.66 1008.69 1008.80 1008.97 1009.22 1009.54 1009.90 1010.28 1010.66 1011.02 1011.33 1011.58 1011.77 1011.90 1011.98 1012.04
1009.79 1009.28 1008.75 1008.20 1007.63 1007.04 1006.45 1005.88 1005.38 1004.97 1004.70 1004.59 1004.64 1004.85 1005.20 1005.65 1006.17 1006.71 1007.24 1007.72 1008.13 1008.47 1008.72 1008.89 1009.00 1009.05 1009.08 1009.10 1009.13 1009.20 1009.32 1009.49 1009.72 1010.01 1010.33 1010.68 1011.01 1011.32 1011.59 1011.81 1011.98 1012.10 1012.18
1009.71 1009.22 1008.69 1008.12 1007.50 1006.86 1006.19 1005.53 1004.92 1004.40 1004.01 1003.78 1003.73 1003.85 1004.14 1004.57 1005.11 1005.71 1006.34 1006.96 1007.54 1008.06 1008.51 1008.87 1009.14 1009.33 1009.45 1009.52 1009.57 1009.61 1009.67 1009.77 1009.93 1010.14 1010.39 1010.69 1011.00 1011.31 1011.61 1011.86 1012.08 1012.25 1012.38
1009.51 1009.05 1008.54 1007.98 1007.37 1006.71 1006.01 1005.30 1004.62 1004.02 1003.53 1003.21 1003.05 1003.09 1003.31 1003.70 1004.22 1004.86 1005.55 1006.27 1006.99 1007.66 1008.27 1008.80 1009.23 1009.55 1009.77 1009.91 1009.98 1010.02 1010.04 1010.08 1010.16 1010.29 1010.48 1010.73 1011.01 1011.32 1011.63 1011.92 1012.18 1012.40 1012.58
1009.18 1008.78 1008.33 1007.82 1007.25 1006.61 1005.93 1005.22 1004.52 1003.88 1003.34 1002.94 1002.72 1002.68 1002.83 1003.16 1003.66 1004.28 1005.00 1005.78 1006.57 1007.36 1008.09 1008.74 1009.30 1009.73 1010.05 1010.26 1010.37 1010.41 1010.41 1010.41 1010.43 1010.50 1010.64 1010.83 1011.08 1011.36 1011.67 1011.98 1012.27 1012.52 1012.73
1008.78 1008.46 1008.09 1007.67 1007.17 1006.60 1005.97 1005.30 1004.62 1003.99 1003.45 1003.02 1002.76 1002.67 1002.77 1003.04 1003.49 1004.08 1004.78 1005.56 1006.39 1007.22 1008.02 1008.75 1009.39 1009.91 1010.31 1010.58 1010.73 1010.80 1010.80 1010.78 1010.77 1010.79 1010.87 1011.01 1011.21 1011.46 1011.74 1012.04 1012.32 1012.57 1012.79
1008.36 1008.13 1007.86 1007.54 1007.15 1006.67 1006.13 1005.54 1004.94 1004.36 1003.85 1003.44 1003.17 1003.06 1003.12 1003.35 1003.74 1004.27 1004.93 1005.67 1006.47 1007.29 1008.10 1008.86 1009.54 1010.11 1010.55 1010.87 1011.07 1011.17 1011.19 1011.18 1011.15 1011.14 1011.18 1011.27 1011.42 1011.61 1011.84 1012.09 1012.33 1012.56 1012.74
1007.96 1007.83 1007.67 1007.46 1007.19 1006.83 1006.40 1005.92 1005.42 1004.92 1004.48 1004.13 1003.89 1003.78 1003.82 1004.02 1004.35 1004.82 1005.40 1006.07 1006.80 1007.57 1008.33 1009.07 1009.74 1010.32 1010.79 1011.15 1011.39 1011.52 1011.58 1011.58 1011.56 1011.54 1011.55 1011.60 1011.69 1011.81 1011.97 1012.15 1012.32 1012.48 1012.60
1007.59 1007.57 1007.52 1007.43 1007.27 1007.04 1006.73 1006.37 1005.98 1005.60 1005.25 1004.97 1004.79 1004.72 1004.76 1004.93 1005.22 1005.62 1006.12 1006.69 1007.33 1008.00 1008.68 1009.35 1009.98 1010.54 1011.01 1011.38 1011.65 1011.83 1011.93 1011.97 1011.96 1011.95 1011.94 1011.95 1011.99 1012.05 1012.12 1012.21 1012.29 1012.36 1012.41
1007.27 1007.32 1007.38 1007.39 1007.35 1007.23 1007.05 1006.81 1006.55 1006.28 1006.04 1005.85 1005.74 1005.72 1005.79 1005.95 1006.20 1006.54 1006.96 1007.43 1007.96 1008.52 1009.10 1009.68 1010.24 1010.75 1011.20 1011.58 1011.87 1012.08 1012.22 1012.30 1012.33 1012.33 1012.32 1012.30 1012.29 1012.29 1012.28 1012.27 1012.26 1012.24 1012.20
1006.93 1007.06 1007.19 1007.30 1007.35 1007.34 1007.27 1007.16 1007.01 1006.86 1006.73 1006.65 1006.62 1006.65 1006.75 1006.92 1007.16 1007.45 1007.79 1008.17 1008.59 1009.05 1009.53 1010.01 1010.49 1010.95 1011.36 1011.73 1012.03 1012.27 1012.45 1012.56 1012.63 1012.66 1012.65 1012.63 1012.58 1012.52 1012.45 1012.36 1012.26 1012.15 1012.02
1006.52 1006.70 1006.90 1007.07 1007.21 1007.30 1007.33 1007.33 1007.31 1007.27 1007.25 1007.27 1007.32 1007.42 1007.56 1007.75 1007.97 1008.23 1008.52 1008.84 1009.18 1009.54 1009.93 1010.33 1010.73 1011.13 1011.51 1011.86 1012.16 1012.42 1012.62 1012.77 1012.87 1012.92 1012.93 1012.90 1012.84 1012.74 1012.62 1012.47 1012.30 1012.12 1011.92
1005.99 1006.20 1006.43 1006.67 1006.88 1007.05 1007.20 1007.31 1007.39 1007.48 1007.57 1007.68 1007.82 1007.98 1008.17 1008.38 1008.61 1008.86 1009.11 1009.38 1009.67 1009.98 1010.30 1010.64 1010.99 1011.33 1011.68 1012.00 1012.29 1012.55 1012.77 1012.94 1013.06 1013.13 1013.15 1013.13 1013.06 1012.95 1012.79 1012.60 1012.39 1012.15 1011.91
1005.30 1005.51 1005.77 1006.06 1006.34 1006.61 1006.86 1007.09 1007.30 1007.50 1007.71 1007.92 1008.14 1008.37 1008.60 1008.84 1009.08 1009.33 1009.58 1009.83 1010.09 1010.37 1010.66 1010.96 1011.27 1011.58 1011.89 1012.19 1012.46 1012.71 1012.92 1013.10 1013.23 1013.31 1013.34 1013.32 1013.26 1013.13 1012.96 1012.75 1012.51 1012.24 1011.97
Thickness
5761 5760 5759 5757 5756 5755 5754 5754 5753 5753 5753 5753 5752 5751 5750 5750 5750 5750 5750 5750 5750 5751 5751 5751 5751 5750 5750 5749 5749 5748 5747 5745 5744 5742 5740 5738 5737 5735 5734 5732 5730 5728 5726
5759 5757 5755 5754 5753 5752 5751 5751 5751 5750 5750 5749 5749 5748 5748 5748 5748 5748 5748 5748 5748 5748 5749 5749 5749 5749 5748 5748 5748 5747 5747 5746 5745 5743 5742 5740 5738 5736 5735 5733 5732 5730 5728
5755 5754 5753 5751 5751 5749 5748 5747 5747 5746 5745 5744 5744 5745 5745 5745 5746 5746 5746 5745 5745 5745 5745 5746 5746 5747 5747 5746 5746 5746 5746 5745 5744 5744 5742 5741 5739 5737 5736 5734 5733 5731 5729
5750 5749 5749 5749 5748 5746 5745 5743 5742 5740 5739 5738 5739 5741 5742 5743 5743 5744 5743 5743 5742 5742 5742 5742 5744 5744 5744 5745 5744 5745 5744 5744 5744 5743 5742 5741 5739 5738 5736 5735 5733 5732 5730
5746 5744 5744 5745 5744 5742 5741 5739 5738 5736 5734 5733 5733 5735 5737 5738 5740 5740 5740 5741 5740 5740 5739 5739 5740 5742 5742 5742 5742 5743 5742 5742 5742 5742 5741 5740 5739 5738 5737 5735 5734 5732 5730
5741 5740 5740 5741 5739 5737 5736 5734 5732 5731 5730 5728 5727 5729 5732 5734 5735 5735 5736 5737 5737 5737 5737 5737 5737 5739 5739 5740 5740 5740 5740 5740 5740 5740 5740 5739 5739 5738 5737 5735 5734 5732 5730
5736 5734 5735 5735 5734 5732 5732 5731 5727 5725 5725 5723 5718 5719 5725 5728 5730 5731 5732 5732 5733 5734 5734 5734 5734 5735 5736 5736 5737 5737 5737 5737 5737 5738 5738 5737 5737 5737 5736 5735 5733 5732 5730
5730 5729 5728 5727 5727 5726 5726 5725 5723 5720 5720 5719 5713 5709 5710 5717 5723 5727 5727 5727 5729 5730 5730 5730 5731 5730 5731 5731 5732 5733 5733 5733 5734 5734 5734 5735 5735 5735 5735 5734 5732 5731 5729
5722 5721 5721 5720 5720 5719 5720 5720 5718 5715 5713 5714 5712 5707 5702 5705 5712 5718 5720 5722 5723 5723 5725 5725 5726 5726 5726 5726 5727 5728 5729 5729 5729 5729 5730 5731 5732 5732 5732 5732 5730 5729 5727
5713 5712 5712 5712 5712 5712 5712 5713 5714 5712 5710 5709 5709 5708 5707 5707 5703 5705 5710 5714 5716 5717 5718 5719 5720 5721 5721 5721 5721 5722 5722 5722 5723 5724 5725 5726 5726 5727 5728 5728 5727 5726 5725
5703 5703 5703 5704 5704 5704 5705 5707 5708 5708 5707 5707 5706 5705 5703 5702 5701 5698 5700 5704 5707 5710 5711 5712 5713 5714 5714 5714 5714 5715 5715 5716 5716 5717 5718 5719 5720 5721 5722 5722 5723 5722 5722
5693 5694 5694 5695 5696 5697 5699 5700 5702 5702 5703 5703 5703 5702 5700 5698 5698 5696 5695 5696 5697 5700 5702 5704 5705 5706 5707 5707 5707 5708 5708 5709 5709 5710 5710 5711 5712 5713 5714 5715 5716 5717 5717
5684 5684 5684 5685 5687 5689 5691 5693 5695 5697 5697 5698 5698 5698 5698 5698 5697 5695 5692 5691 5690 5690 5692 5694 5696 5698 5699 5699 5700 5700 5700 5701 5701 5701 5702 5703 5704 5705 5706 5707 5708 5709 5709
5676 5676 5676 5677 5679 5681 5683 5686 5688 5691 5692 5693 5694 5694 5694 5694 5693 5692 5690 5686 5682 5680 5682 5684 5686 5689 5690 5691 5691 5691 5691 5693 5693 5694 5694 5696 5697 5698 5699 5699 5700 5701 5701
5669 5668 5668 5669 5670 5673 5675 5678 5681 5684 5686 5688 5689 5690 5690 5690 5689 5688 5687 5685 5680 5675 5673 5674 5676 5679 5681 5682 5681 5682 5683 5684 5685 5685 5686 5687 5688 5690 5690 5691 5692 5692 5693
5662 5660 5660 5661 5662 5664 5667 5670 5673 5676 5679 5681 5683 5684 5684 5684 5683 5682 5681 5680 5679 5676 5669 5668 5668 5669 5671 5673 5672 5673 5674 5676 5676 5677 5678 5679 5680 5681 5682 5683 5683 5684 5684
5655 5653 5653 5653 5654 5656 5658 5661 5664 5668 5670 5672 5674 5675 5676 5677 5676 5675 5674 5672 5672 5671 5664 5659 5659 5659 5661 5661 5662 5663 5665 5666 5667 5668 5669 5671 5672 5673 5674 5674 5675 5675 5676
5650 5647 5646 5646 5647 5647 5649 5651 5654 5657 5659 5661 5663 5664 5665 5667 5667 5666 5666 5665 5663 5663 5660 5653 5648 5649 5650 5651 5653 5654 5655 5657 5658 5659 5661 5662 5664 5665 5665 5666 5666 5666 5667
5644 5641 5639 5639 5639 5639 5639 5641 5642 5645 5646 5648 5650 5652 5653 5655 5656 5655 5655 5655 5653 5652 5650 5646 5640 5639 5639 5641 5644 5645 5645 5647 5649 5650 5651 5653 5654 5656 5656 5657 5657 5657 5658
5638 5635 5633 5632 5631 5631 5631 5632 5632 5632 5634 5635 5637 5639 5641 5644 5645 5645 5644 5643 5642 5639 5637 5635 5631 5629 5630 5631 5634 5635 5635 5637 5638 5641 5642 5644 5645 5646 5647 5648 5648 5648 5648
5632 5629 5626 5625 5625 5624 5624 5623 5623 5623 5623 5624 5625 5627 5629 5632 5634 5634 5634 5632 5631 5628 5626 5624 5621 5621 5622 5624 5625 5626 5627 5628 5629 5630 5633 5635 5637 5638 5638 5638 5639 5638 5638
5626 5623 5620 5619 5618 5617 5616 5616 5616 5615 5615 5615 5615 5615 5618 5620 5621 5622 5622 5621 5621 5620 5617 5615 5614 5614 5614 5616 5617 5619 5620 5622 5622 5622 5624 5626 5627 5628 5629 5629 5629 5628 5628
5620 5617 5615 5613 5611 5609 5609 5609 5609 5608 5606 5606 5606 5606 5608 5608 5609 5611 5610 5610 5609 5609 5610 5610 5609 5608 5609 5609 5611 5612 5613 5614 5613 5613 5615 5618 5618 5619 5620 5619 5618 5618 5617
5614 5612 5610 5607 5605 5603 5603 5602 5602 5601 5599 5597 5597 5597 5598 5598 5599 5600 5600 5599 5598 5598 5599 5601 5602 5602 5603 5604 5606 5607 5607 5606 5606 5605 5607 5608 5609 5609 5610 5609 5608 5606 5605
5609 5606 5605 5602 5600 5598 5597 5596 5595 5593 5591 5589 5589 5589 5590 5590 5590 5592 5592 5590 5589 5589 5590 5593 5594 5595 5597 5598 5600 5602 5601 5603 5601 5600 5597 5598 5598 5598 5599 5598 5597 5595 5594
5604 5602 5600 5598 5596 5593 5592 5591 5589 5588 5585 5582 5581 5581 5582 5583 5583 5585 5586 5585 5584 5583 5585 5586 5587 5588 5590 5591 5593 5595 5596 5596 5594 5593 5590 5590 5590 5588 5589 5588 5586 5584 5582